TimeMST,TemperatureF,Dew PointF,Humidity,Sea Level PressureIn,VisibilityMPH,Wind Direction,Wind SpeedMPH,Gust SpeedMPH,PrecipitationIn,Events,Conditions,WindDirDegrees,DateUTC
12:53 AM,6.1,1.0,80,30.08,10.0,WNW,3.5,-,N/A,,Clear,300,2013-01-30 07:53:00
1:53 AM,7.0,-0.0,73,30.05,10.0,Calm,Calm,-,N/A,,Scattered Clouds,0,2013-01-30 08:53:00
2:53 AM,5.0,-2.0,73,30.04,10.0,SW,3.5,-,N/A,,Mostly Cloudy,220,2013-01-30 09:53:00
3:53 AM,8.1,-0.9,67,30.03,10.0,Calm,Calm,-,N/A,,Scattered Clouds,0,2013-01-30 10:53:00
4:53 AM,9.0,-0.9,64,30.00,10.0,SE,3.5,-,N/A,,Mostly Cloudy,130,2013-01-30 11:53:00
5:53 AM,10.9,1.9,67,29.97,10.0,Calm,Calm,-,N/A,,Clear,0,2013-01-30 12:53:00
6:53 AM,15.1,5.0,64,29.97,10.0,Variable,5.8,-,N/A,,Clear,0,2013-01-30 13:53:00
7:53 AM,19.9,9.0,62,29.96,10.0,WSW,13.8,-,N/A,,Mostly Cloudy,250,2013-01-30 14:53:00
8:53 AM,23.0,10.0,58,29.96,10.0,WSW,4.6,-,N/A,,Clear,250,2013-01-30 15:53:00
9:53 AM,23.0,12.0,63,29.97,10.0,SW,3.5,-,N/A,,Clear,230,2013-01-30 16:53:00
10:53 AM,27.0,15.1,61,29.98,10.0,WSW,8.1,-,N/A,,Clear,240,2013-01-30 17:53:00
11:53 AM,30.0,18.0,61,29.96,10.0,Calm,Calm,-,N/A,,Clear,0,2013-01-30 18:53:00
12:53 PM,30.0,19.0,64,29.96,10.0,WSW,4.6,-,N/A,,Mostly Cloudy,250,2013-01-30 19:53:00
1:53 PM,28.9,19.9,69,29.94,10.0,SW,4.6,-,N/A,,Scattered Clouds,220,2013-01-30 20:53:00
2:53 PM,35.1,21.0,57,29.93,10.0,Calm,Calm,-,N/A,,Overcast,0,2013-01-30 21:53:00
3:53 PM,36.0,19.0,50,29.91,10.0,Calm,Calm,-,N/A,,Scattered Clouds,0,2013-01-30 22:53:00
4:53 PM,37.0,15.1,41,29.90,10.0,NNW,10.4,19.6,N/A,,Clear,330,2013-01-30 23:53:00
5:53 PM,33.1,14.0,46,29.93,10.0,Calm,Calm,-,N/A,,Clear,0,2013-01-31 00:53:00
6:53 PM,32.0,12.9,45,29.94,10.0,South,5.8,-,N/A,,Clear,180,2013-01-31 01:53:00
7:53 PM,28.0,12.9,53,29.94,10.0,SE,8.1,-,N/A,,Clear,140,2013-01-31 02:53:00
8:53 PM,28.9,15.1,56,29.94,10.0,SE,12.7,-,N/A,,Clear,140,2013-01-31 03:53:00
9:53 PM,26.1,14.0,60,29.94,10.0,SE,13.8,-,N/A,,Clear,130,2013-01-31 04:53:00
10:53 PM,27.0,15.1,61,29.96,10.0,South,4.6,-,N/A,,Overcast,170,2013-01-31 05:53:00
11:53 PM,27.0,15.1,61,29.97,10.0,Variable,3.5,-,N/A,,Overcast,0,2013-01-31 06:53:00